This demonstration page uses our WeatherBlox Daily Observations layout. Learn more.

Left ArrowRight Arrow

38.83388, -104.82136

Hourly Observations for May 11, 2018

Temp ( °F °C ) Dew Point ( °F °C ) Humidity (%) Winds ( mph kmh ) Pressure ( in mb ) Visibility ( mi km ) Precip ( " mm )
12:58 am 00:58 Clear 58 14.4 45 7 61 61 NW 21 33 29.28 992 10 16 0.00 0.00
1:58 am 01:58 Clear 58 14.4 42 5.6 56 56 NNW 16 26 29.29 992 10 16 0.00 0.00
2:58 am 02:58 Clear 57 13.9 42 5.3 56 56 NNW 16 26 29.26 991 10 16 0.00 0.00
3:58 am 03:58 Clear 54 12 43 5.9 67 67 NNW 12 19 29.29 992 10 16 0.00 0.00
4:58 am 04:58 Clear 51 10.6 41 5.2 70 70 NNW 10 17 29.32 993 10 16 0.00 0.00
5:58 am 05:58 Sunny 50 9.9 41 5.2 73 73 NNW 12 19 29.32 993 10 16 0.00 0.00
6:58 am 06:58 Sunny 53 11.6 42 5.3 66 66 N 8 13 29.33 993 10 16 0.00 0.00
7:58 am 07:58 Sunny 55 13 42 5.4 60 60 Calm 29.34 994 10 16 0.00 0.00
8:58 am 08:58 Sunny 59 15.2 43 6.3 56 56 SE 16 26 29.31 993 10 16 0.00 0.00
9:58 am 09:58 Sunny 62 16.6 44 6.8 53 53 ESE 15 24 29.31 993 10 16 0.00 0.00
10:58 am 10:58 Mostly Sunny 60 15.7 43 6.1 53 53 SE 20 31 29.34 993 10 16 0.00 0.00
11:58 am 11:58 Sunny 64 17.5 42 5.7 46 46 SSE 20 31 29.33 993 10 16 0.00 0.00
12:58 pm 12:58 Sunny 65 18.5 41 5.1 41 41 SSE 21 33 29.30 992 10 16 0.00 0.00
1:58 pm 13:58 Sunny 69 20.3 40 4.2 35 35 SE 20 31 29.28 992 10 16 0.00 0.00
2:58 pm 14:58 Sunny 69 20.8 39 3.8 33 33 SE 18 30 29.26 991 10 16 0.00 0.00
3:58 pm 15:58 Sunny 71 21.4 38 3.4 31 31 SSE 17 28 29.26 991 10 16 0.00 0.00
4:58 pm 16:58 Mostly Cloudy 70 21 36 2.3 29 29 SE 17 28 29.26 991 10 16 0.00 0.00
5:58 pm 17:58 Sunny 69 20.4 38 3.1 32 32 SE 15 24 29.29 992 10 16 0.00 0.00
6:58 pm 18:58 Partly Cloudy 66 18.8 39 4 38 38 S 6 9 29.30 992 10 16 0.00 0.00
7:58 pm 19:58 Sunny 64 18 41 5.1 43 43 S 7 11 29.31 993 10 16 0.00 0.00
8:58 pm 20:58 Clear 63 17.3 44 6.6 50 50 Calm 29.34 994 10 16 0.00 0.00
9:58 pm 21:58 Clear 59 15 46 7.9 63 63 NW 9 15 29.38 995 10 16 0.00 0.00
10:58 pm 22:58 Clear 59 14.8 46 8 64 64 NNW 8 13 29.40 996 10 16 0.00 0.00
11:38 pm 23:38 Mostly Cloudy 57 14 50 10 77 77 NNW 3 6 29.40 996 10 16 0.00 0.00
11:58 pm 23:58 Cloudy 56 13.4 50 9.9 80 80 ENE 3 6 29.42 996 10 16 0.00 0.00

Powered by AerisWeather